星链-30181 (STARLINK-30181 )

导读

STARLINK-30181是美国太空探索技术公司星链互联网卫星星座中的一员,于2023年7月24日发射升空。该卫星属于星链项目低轨卫星组,主要承担为全球提供高速低延迟互联网接入服务的任务,属于星链星座部署过程中的新增组网卫星,进一步拓展了星链全球网络的覆盖范围与服务能力。

Basic Information
目录编号:
57444
目录名称:
STARLINK-30181
国际标识:
2023-105Q
轨道中心:
EARTH
卫星名称:
星链-30181
卫星全名:
星链-30181 (STARLINK-30181 )
卫星状态:
在轨 (已飞行1138 天)
发射日期:
2023-07-24 UTC
国别 :
美国 (US)
星等 :
--
Orbit Information
数据来源 国际轨道数据
星历时间: 2026-09-04T14:23:30+0800
9小时前
查看轨道信息
半长轴: 6861.193km
偏心率: 0.0001599
轨道倾角: 43.004°
近地点辐角 248.320°
升交点赤经 334.683°
平近点角 111.748°
近地点: 481.958km
远地点: 484.154km
周期: 94.267分钟
每日圈数: 15.275779
Detailed Information
固有亮度:
5
最大亮度:
0.3
卫星平台:
Starlink v2.0 mini
覆盖范围:
全球
运营商:
太空探索技术公司
运营商所在国:
美国
制造商(研发单位):
太空探索技术公司
制造商所在国:
美国
使用方式:
暂无
Satellite Introduction
星链(Starlink)计划是由太空探索技术公司(SpaceX)提出的一个巨型低轨卫星互联网星座项目,计划在2019年至2024年间在太空搭建由约1.2万颗卫星组成的“星链”网络,其中1584颗将部署在地球上空550千米处的近地轨道,并从2020年开始工作。该卫星仍在工作。
2D Orbit Map
3D Orbit Map
Orbit Altitude Analysis Chart
Orbit Inclination Analysis Chart
Orbit Comprehensive Analysis Chart
View Comprehensive Chart
Conjunction Data List
Event ID Objects TCA Miss Dist (km) Collision Risk Probability Collision Risk Index (CRI) Action
CDM_260906-200405-744406-242221
2026-09-06T
20:04:58+0000
0.284 km
中距离
3.473585E-4 高风险 0.86
CDM_260906-115805-744406-712121
2026-09-06T
11:58:22+0000
0.677 km
远距离
6.061958E-5 中风险 0.71
CDM_260906-133205-744406-712121
2026-09-06T
13:32:31+0000
1.478 km
极远距离
4.496238E-6 低风险 0.48
CDM_260906-102405-744406-712121
2026-09-06T
10:24:13+0000
1.841 km
极远距离
2.336082E-6 低风险 0.42
CDM_260906-183005-744406-242221
2026-09-06T
18:30:49+0000
2.416 km
极远距离
1.005316E-6 低风险 0.35
CDM_260906-150605-744406-712121
2026-09-06T
15:06:41+0000
2.975 km
极远距离
9.296252E-7 极低风险 0.34